Home   Weather   Leutkirch im Allgäu   Past weeks

Flag for Germany Past Weather in Leutkirch im Allgäu, Baden-Württemberg, Germany — Yesterday and Last 2 Weeks

39 °F


Feels Like: 37 °F
Forecast: 35 / 56 °F
Wind: 3 mph from Northeast

Location: Friedrichshafen Airport

Current Time: Oct 28, 2016 at 2:54:07 AM

Latest Report: Oct 28, 2016 at 2:20 AM

Visibility: 2 mi

Pressure: 30.54 "Hg (28.17 "Hg at 656m altitude)

Humidity: 100%

Dew Point: 39 °F

Location of Leutkirch im AllgäuLocation

Past Weather in Leutkirch im Allgäu — Graph


Leutkirch im Allgäu Temperature Yesterday

Maximum temperature yesterday: 57 °F (at 1:50 PM)
Minimum temperature yesterday: 39 °F (at 11:20 PM)
Average temperature yesterday: 48 °F

High & Low Weather Summary for the Past Weeks

High61 °F (Oct 15, 4:50 PM)100% (Oct 13, 4:50 AM)30.54 "Hg (Oct 13, 4:50 AM)
Low34 °F (Oct 13, 5:50 AM)54% (Oct 22, 3:50 PM)29.65 "Hg (Oct 14, 4:20 PM)
Average48 °F90%30.08 "Hg
* Reported Oct 13 1:20 AM — Oct 28 1:50 AM, Leutkirch im Allgäu, Weather by CustomWeather, © 2016

Note: Actual official high and low records may vary slightly from our data, if they occured in-between our weather recording intervals... More about our weather records


Leutkirch im Allgäu Weather History for the Previous 24 Hours

Scroll right to see more
Time TempWeatherWind HumidityBarometerVisibility
1:50 AM
Fri, Oct 28
39 °FFog.5 mph100%30.54 "Hg3 mi
1:20 AM41 °FQuite cool.6 mph93%30.54 "Hg3 mi
12:50 AM41 °FQuite cool.7 mph100%30.54 "Hg3 mi
12:20 AM41 °FFog.6 mph100%30.54 "Hg2 mi
11:50 PM
Thu, Oct 27
39 °FChilly.3 mph100%30.54 "Hg1 mi
11:20 PM39 °FFog.5 mph100%30.54 "Hg2 mi
10:50 PM41 °FQuite cool.3 mph100%30.54 "Hg3 mi
10:20 PM43 °FQuite cool.5 mph100%30.54 "Hg6 mi
9:50 PM41 °FClear.3 mph100%30.54 "Hg5 mi
9:20 PM41 °FClear.3 mph100%30.54 "Hg10 mi
8:50 PM43 °FClear.3 mph100%30.54 "Hg10 mi
8:20 PM43 °FClear.2 mph100%30.54 "Hg10 mi
7:50 PM45 °FClear.No wind93%30.54 "Hg10 mi
7:20 PM45 °FClear.2 mph100%30.54 "Hg10 mi
6:50 PM46 °FClear.2 mph93%30.54 "Hg10 mi
6:20 PM48 °FClear.2 mph87%30.51 "Hg10 mi
5:50 PM52 °FSunny.1 mph77%30.51 "Hg10 mi
5:20 PM55 °FSunny.2 mph67%30.51 "Hg10 mi
4:50 PM55 °FSunny.2 mph67%30.51 "Hg10 mi
4:20 PM57 °FPassing clouds.2 mph59%30.51 "HgN/A
3:50 PM57 °FPassing clouds.3 mph59%30.51 "HgN/A
3:20 PM57 °FScattered clouds.3 mph63%30.51 "HgN/A
2:50 PM57 °FScattered clouds.3 mph63%30.51 "HgN/A
2:20 PM57 °FPartly sunny.5 mph59%30.51 "HgN/A
1:50 PM57 °FScattered clouds.2 mph63%30.54 "HgN/A
1:20 PM55 °FPassing clouds.3 mph67%30.54 "HgN/A
12:50 PM54 °FBroken clouds.3 mph77%30.54 "HgN/A
12:20 PM52 °FPartly sunny.3 mph82%30.54 "HgN/A
11:50 AM52 °FPartly sunny.5 mph88%30.54 "HgN/A
11:20 AM50 °FFog.3 mph88%30.54 "Hg3 mi
10:50 AM48 °FFog.3 mph94%30.54 "Hg3 mi
10:20 AM48 °FFog.3 mph94%30.54 "Hg3 mi
9:50 AM46 °FFog.3 mph100%30.54 "Hg3 mi
9:20 AM46 °FFog.2 mph93%30.51 "Hg3 mi
8:50 AM45 °FFog.1 mph100%30.51 "Hg3 mi
8:20 AM45 °FFog.2 mph100%30.48 "Hg3 mi
7:50 AM45 °FFog.3 mph100%30.48 "Hg2 mi
7:20 AM43 °FFog.3 mph100%30.48 "Hg3 mi
6:50 AM46 °FFog.5 mph93%30.45 "Hg3 mi
6:20 AM45 °FLight fog.2 mph100%30.45 "Hg1 mi
5:50 AM45 °FPassing clouds.1 mph100%30.45 "Hg6 mi
5:20 AM48 °FPassing clouds.3 mph94%30.45 "Hg6 mi
4:50 AM48 °FOvercast.2 mph94%30.45 "HgN/A
4:20 AM48 °FOvercast.3 mph94%30.45 "Hg6 mi
3:50 AM48 °FFog.2 mph94%30.45 "Hg3 mi
3:20 AM48 °FOvercast.2 mph94%30.45 "Hg3 mi
2:50 AM48 °FOvercast.3 mph94%30.45 "Hg3 mi
2:20 AM48 °FFog.5 mph94%30.45 "Hg2 mi
Weather by CustomWeather, © 2016

See weather overviewHow to use our weather pages